GW3802 Weather Reports


time (UTC)temp
C
wind
direction
speed
KPH
gust
KPH
rain 1hr
cm
rain 24hr
cm
rain mn
cm
humidity
%
barometer
mb
20260506103206 6 308 0.0 4.8 0.00 0.00 0.00 63 1007.5
20260506102704 6 317 0.0 0.0 0.00 0.00 0.00 64 1007.1
20260506102202 6 302 0.0 0.0 0.00 0.00 0.00 64 1007.1
20260506101658 6 324 0.0 0.0 0.00 0.00 0.00 63 1007.5
20260506101155 6 17 1.6 3.2 0.00 0.00 0.00 62 1007.1
20260506100653 6 301 0.0 3.2 0.00 0.00 0.00 64 1007.1
20260506100151 6 323 0.0 6.4 0.00 0.00 0.00 63 1007.5
20260506095649 6 11 6.4 9.7 0.00 0.00 0.00 64 1007.1
20260506095146 6 353 0.0 1.6 0.00 0.00 0.00 66 1007.5
20260506094643 6 304 0.0 1.6 0.00 0.00 0.00 66 1007.5
20260506094141 6 320 0.0 1.6 0.00 0.00 0.00 67 1007.1
20260506093639 6 323 0.0 3.2 0.00 0.00 0.00 66 1007.1
20260506093136 6 325 0.0 1.6 0.00 0.00 0.00 67 1007.1
20260506092634 6 355 1.6 3.2 0.00 0.00 0.00 67 1007.1
20260506092131 6 322 0.0 3.2 0.00 0.00 0.00 66 1006.8
20260506091629 6 302 0.0 1.6 0.00 0.00 0.00 66 1006.8
20260506091126 6 303 0.0 0.0 0.00 0.00 0.00 65 1007.5
20260506090624 6 302 0.0 1.6 0.00 0.00 0.00 65 1007.1
20260506090120 6 295 0.0 1.6 0.00 0.00 0.00 65 1006.8
20260506085617 6 317 0.0 1.6 0.00 0.00 0.00 65 1007.1
20260506085113 6 318 1.6 3.2 0.00 0.00 0.00 65 1006.8
20260506084610 6 307 0.0 3.2 0.00 0.00 0.00 64 1006.8
20260506084107 6 354 1.6 3.2 0.00 0.00 0.00 64 1006.8
20260506083604 6 328 0.0 4.8 0.00 0.00 0.00 64 1007.1
20260506083101 7 13 1.6 1.6 0.00 0.00 0.00 65 1007.1
20260506082558 7 26 3.2 4.8 0.00 0.00 0.00 65 1007.1
20260506082053 7 331 1.6 3.2 0.00 0.00 0.00 65 1007.1
20260506081552 7 342 3.2 4.8 0.00 0.00 0.00 65 1007.1
20260506081049 7 334 4.8 6.4 0.00 0.00 0.00 65 1007.1
20260506080547 7 343 3.2 9.7 0.00 0.00 0.00 65 1007.1
20260506073027 8 313 0.0 3.2 0.00 0.00 0.00 61 1006.4
20260506072524 8 301 0.0 0.0 0.00 0.00 0.00 61 1006.4
20260506072022 8 331 0.0 1.6 0.00 0.00 0.00 60 1006.4
20260506071520 8 307 0.0 1.6 0.00 0.00 0.00 59 1006.4
20260506071016 8 342 0.0 4.8 0.00 0.00 0.00 58 1006.8
20260506070514 8 300 0.0 3.2 0.00 0.00 0.00 57 1007.1
20260506062451 9 292 0.0 0.0 0.00 0.00 0.00 53 1006.4
20260506061947 9 291 0.0 1.6 0.00 0.00 0.00 51 1006.4
20260506061443 9 287 0.0 3.2 0.00 0.00 0.00 51 1006.4
20260506060941 9 296 0.0 3.2 0.00 0.00 0.00 51 1006.4
20260506060440 9 258 3.2 3.2 0.00 0.00 0.00 51 1006.1
20260506051411 9 292 0.0 3.2 0.00 0.00 0.00 54 1006.4
20260506050908 9 290 0.0 0.0 0.00 0.00 0.00 53 1006.1
20260506050406 10 299 0.0 1.6 0.00 0.00 0.00 51 1006.1
20260506044856 10 298 1.6 3.2 0.00 0.00 0.00 51 1006.4
20260506044354 9 288 0.0 1.6 0.00 0.00 0.00 53 1006.4
20260506043851 10 293 0.0 0.0 0.00 0.00 0.00 54 1006.4
20260506043348 10 286 0.0 0.0 0.00 0.00 0.00 53 1006.4
20260506042847 10 286 0.0 0.0 0.00 0.00 0.00 56 1006.4
20260506042345 10 286 0.0 0.0 0.00 0.00 0.00 53 1006.4
20260506041844 10 286 0.0 0.0 0.00 0.00 0.00 55 1006.4
20260506041340 10 286 0.0 0.0 0.00 0.00 0.00 56 1006.4
20260506040837 10 295 1.6 3.2 0.00 0.00 0.00 52 1006.4
20260506040335 10 284 0.0 0.0 0.00 0.00 0.00 50 1006.4
20260506035831 10 281 0.0 3.2 0.00 0.10 0.10 50 1006.4
20260506035329 10 268 3.2 4.8 0.00 0.10 0.10 51 1006.4
20260506034825 10 283 0.0 1.6 0.00 0.10 0.10 54 1006.4
20260506034323 10 257 0.0 1.6 0.00 0.10 0.10 57 1006.4
20260506033820 10 280 1.6 4.8 0.00 0.10 0.10 57 1006.4
20260506033317 10 271 0.0 3.2 0.00 0.10 0.10 61 1006.4
20260506032813 10 281 0.0 1.6 0.00 0.10 0.10 61 1006.4
20260506032310 10 290 0.0 0.0 0.00 0.10 0.10 64 1006.4
20260506031807 10 294 0.0 1.6 0.00 0.10 0.10 69 1006.4
20260506031304 10 293 0.0 0.0 0.00 0.10 0.10 72 1006.4
20260506030802 10 292 0.0 0.0 0.00 0.10 0.10 72 1006.4
20260506030300 10 292 0.0 0.0 0.00 0.10 0.10 72 1006.4
20260506025757 10 292 0.0 0.0 0.00 0.10 0.10 71 1006.8
20260506025253 10 292 0.0 0.0 0.00 0.10 0.10 73 1006.8
20260506024750 10 292 0.0 0.0 0.00 0.10 0.10 74 1006.4
20260506024246 10 292 0.0 0.0 0.00 0.10 0.10 74 1006.8
20260506023742 10 292 0.0 1.6 0.00 0.10 0.10 74 1006.8
20260506023240 10 289 0.0 0.0 0.00 0.10 0.10 75 1006.8
20260506022737 10 295 0.0 1.6 0.00 0.10 0.10 75 1006.8
20260506022235 10 277 0.0 0.0 0.00 0.10 0.10 74 1006.8
20260506021732 10 276 0.0 0.0 0.00 0.10 0.10 74 1006.4
20260506021229 10 276 0.0 0.0 0.00 0.10 0.10 75 1006.4
20260506020726 10 276 0.0 0.0 0.00 0.10 0.10 75 1006.4
20260506020224 10 276 0.0 0.0 0.00 0.10 0.10 74 1006.4
20260506015721 10 276 0.0 0.0 0.00 0.10 0.10 73 1006.4
20260506015219 10 276 0.0 0.0 0.00 0.10 0.10 71 1006.4
20260506014715 10 276 0.0 0.0 0.00 0.10 0.10 71 1006.4
20260506014211 10 276 0.0 0.0 0.00 0.10 0.10 73 1006.1
20260506013709 10 276 0.0 0.0 0.00 0.10 0.10 72 1006.4
20260506013206 10 276 0.0 0.0 0.00 0.10 0.10 73 1006.4
20260506012702 10 276 0.0 0.0 0.00 0.10 0.10 72 1006.4
20260506012159 10 276 0.0 0.0 0.00 0.10 0.10 71 1006.1
20260506011657 10 276 0.0 0.0 0.00 0.10 0.10 71 1006.4
20260506011152 10 276 0.0 0.0 0.00 0.10 0.10 71 1006.1
20260506010651 11 276 0.0 0.0 0.00 0.10 0.10 71 1006.1
20260506010148 11 275 0.0 0.0 0.00 0.10 0.10 70 1006.1
20260506005645 11 279 0.0 0.0 0.00 0.10 0.10 69 1006.1
20260506005142 11 279 0.0 0.0 0.00 0.10 0.10 69 1006.1
20260506004638 11 279 0.0 0.0 0.00 0.10 0.10 69 1006.1
20260506004135 11 278 0.0 1.6 0.00 0.10 0.10 68 1006.1
20260506003631 11 271 0.0 0.0 0.00 0.10 0.10 69 1006.1
20260506003128 11 264 0.0 0.0 0.00 0.10 0.10 69 1005.8
20260506002624 11 264 0.0 0.0 0.00 0.10 0.10 69 1005.8
20260506002120 11 264 0.0 0.0 0.00 0.10 0.10 69 1005.8
20260506001616 11 268 0.0 0.0 0.00 0.10 0.10 69 1005.4
20260506001113 11 268 0.0 0.0 0.00 0.10 0.10 68 1005.8
20260506000611 11 276 0.0 0.0 0.00 0.10 0.10 67 1005.8
20260506000108 11 277 0.0 0.0 0.00 0.10 0.10 66 1005.8
20260505235606 11 268 0.0 1.6 0.00 0.10 0.10 67 1005.8
20260505235103 11 278 0.0 0.0 0.00 0.10 0.10 66 1005.4
20260505234600 12 278 0.0 0.0 0.00 0.10 0.10 66 1005.4
20260505234056 12 255 1.6 4.8 0.00 0.10 0.10 65 1005.4
20260505233554 12 268 0.0 3.2 0.00 0.10 0.10 65 1005.4
20260505233051 12 277 0.0 0.0 0.00 0.10 0.10 65 1005.4
20260505232549 12 262 1.6 1.6 0.00 0.10 0.10 65 1005.4
20260505232046 12 272 0.0 0.0 0.00 0.10 0.10 65 1005.4
20260505231543 12 279 0.0 1.6 0.00 0.10 0.10 65 1005.4
20260505231042 12 277 0.0 1.6 0.00 0.10 0.10 65 1005.4
20260505230539 12 238 3.2 3.2 0.00 0.10 0.10 65 1005.8
20260505230035 12 256 0.0 0.0 0.00 0.10 0.10 66 1005.8
20260505225532 12 275 1.6 3.2 0.00 0.10 0.10 65 1005.8
20260505225028 12 273 0.0 1.6 0.00 0.10 0.10 66 1005.8
20260505224525 12 243 1.6 3.2 0.00 0.10 0.10 65 1005.4
20260505224022 12 265 0.0 3.2 0.00 0.10 0.10 65 1005.8
20260505223519 12 268 0.0 1.6 0.00 0.10 0.10 65 1005.8
20260505223015 12 251 1.6 4.8 0.00 0.10 0.10 64 1005.8
20260505222512 12 264 1.6 3.2 0.00 0.10 0.10 65 1005.4
20260505222008 12 242 6.4 6.4 0.00 0.10 0.10 65 1005.8
20260505221505 12 230 3.2 6.4 0.00 0.10 0.10 65 1005.8
20260505221002 12 268 1.6 9.7 0.00 0.10 0.10 65 1005.8
20260505220459 12 266 3.2 4.8 0.00 0.10 0.10 66 1005.4
20260505215956 12 257 3.2 4.8 0.00 0.10 0.10 66 1005.4
20260505215455 12 235 1.6 6.4 0.00 0.10 0.10 66 1005.4
20260505214952 12 270 1.6 4.8 0.00 0.10 0.10 67 1005.4
20260505214450 12 278 0.0 4.8 0.00 0.10 0.10 67 1005.4
20260505213947 12 271 3.2 9.7 0.00 0.10 0.10 67 1005.4
20260505213444 12 267 4.8 6.4 0.00 0.10 0.10 67 1005.8
20260505212941 11 253 1.6 6.4 0.00 0.10 0.10 68 1005.8
20260505212437 11 258 3.2 4.8 0.00 0.10 0.10 67 1005.8
20260505211933 11 223 3.2 9.7 0.00 0.10 0.10 68 1005.8
20260505211431 11 255 3.2 6.4 0.00 0.10 0.10 68 1005.8
20260505210927 11 211 3.2 4.8 0.00 0.10 0.10 68 1005.8
20260505210425 11 223 4.8 11.3 0.00 0.10 0.10 67 1005.4
20260505205921 11 247 3.2 4.8 0.00 0.10 0.10 68 1005.8
20260505205420 12 272 1.6 9.7 0.00 0.10 0.10 69 1005.8
20260505204917 11 253 3.2 4.8 0.00 0.10 0.10 68 1005.8
20260505204414 11 291 4.8 6.4 0.00 0.10 0.10 69 1005.8
20260505203911 11 248 4.8 9.7 0.00 0.10 0.10 69 1005.4
20260505203408 11 300 1.6 3.2 0.00 0.10 0.10 71 1005.8
20260505202904 11 270 0.0 4.8 0.00 0.10 0.10 70 1005.4
20260505202400 11 265 3.2 4.8 0.00 0.10 0.10 71 1005.8
20260505201857 11 238 3.2 3.2 0.00 0.10 0.10 73 1005.8
20260505201354 11 218 1.6 4.8 0.00 0.10 0.10 75 1005.8
20260505200853 11 253 1.6 4.8 0.00 0.10 0.10 76 1005.8
20260505200349 11 218 3.2 3.2 0.00 0.10 0.10 76 1005.8
20260505195845 11 247 3.2 6.4 0.00 0.10 0.10 76 1005.8
20260505195343 11 188 4.8 6.4 0.00 0.10 0.10 76 1005.8
20260505194839 11 265 1.6 3.2 0.00 0.10 0.10 77 1006.1
20260505194336 11 255 3.2 6.4 0.00 0.10 0.10 76 1006.1
20260505193832 11 204 4.8 4.8 0.00 0.10 0.10 77 1005.8
20260505193330 10 254 4.8 6.4 0.00 0.10 0.10 77 1006.1
20260505192827 10 255 1.6 4.8 0.00 0.10 0.10 77 1006.1
20260505192326 10 195 9.7 11.3 0.00 0.10 0.10 77 1006.1
20260505191823 10 220 4.8 6.4 0.00 0.10 0.10 76 1006.1
20260505191321 10 231 0.0 3.2 0.00 0.10 0.10 75 1006.1
20260505190817 10 212 4.8 6.4 0.00 0.10 0.10 75 1005.8
20260505190313 10 259 1.6 6.4 0.00 0.10 0.10 74 1005.8
20260505185809 10 253 3.2 4.8 0.00 0.10 0.10 74 1005.8
20260505185306 10 207 1.6 6.4 0.00 0.10 0.10 73 1005.8
20260505184802 10 255 0.0 6.4 0.00 0.10 0.10 73 1005.8
20260505184259 10 250 1.6 4.8 0.00 0.10 0.10 73 1005.8
20260505183756 10 227 3.2 4.8 0.00 0.10 0.10 73 1005.8
20260505183253 10 198 4.8 4.8 0.00 0.10 0.10 73 1005.8
20260505182750 10 246 1.6 3.2 0.00 0.10 0.10 74 1005.8
20260505182246 10 248 1.6 4.8 0.00 0.10 0.10 74 1005.8
20260505181743 10 226 0.0 6.4 0.00 0.10 0.10 74 1005.4
20260505181241 10 241 1.6 4.8 0.00 0.10 0.10 73 1005.8
20260505180737 10 206 3.2 6.4 0.00 0.10 0.10 72 1005.4
20260505180233 10 247 0.0 1.6 0.00 0.10 0.10 73 1005.4
20260505175730 10 247 0.0 1.6 0.00 0.10 0.10 71 1005.8
20260505175226 10 245 0.0 4.8 0.00 0.10 0.10 72 1005.4
20260505174723 10 249 0.0 1.6 0.00 0.10 0.10 71 1005.4
20260505174221 10 244 0.0 4.8 0.18 0.10 0.10 72 1005.1
20260505173716 9 239 1.6 4.8 0.18 0.10 0.10 69 1005.1
20260505173213 9 146 1.6 4.8 0.00 0.10 0.10 71 1005.4
20260505172710 9 342 0.0 1.6 0.00 0.08 0.08 69 1005.4
20260505172207 9 282 0.0 1.6 0.00 0.08 0.08 72 1005.4
20260505171707 8 146 3.2 3.2 0.00 0.08 0.08 70 1005.8
20260505171204 8 233 0.0 3.2 0.13 0.08 0.08 71 1005.4
20260505170701 8 228 1.6 1.6 0.18 0.08 0.08 70 1005.4
20260505170158 8 237 0.0 1.6 0.18 0.05 0.05 72 1005.4
20260505165657 9 197 1.6 3.2 0.18 0.03 0.03 68 1005.4
20260505165154 9 309 0.0 1.6 0.00 0.00 0.00 63 1005.4
20260505164649 9 344 0.0 1.6 0.00 0.00 0.00 61 1005.4
20260505164147 9 64 3.2 6.4 0.00 0.00 0.00 57 1005.8
20260505163645 10 26 0.0 4.8 0.00 0.00 0.00 57 1005.8
20260505163143 10 37 6.4 6.4 0.00 0.00 0.00 54 1005.4
20260505162640 10 72 4.8 6.4 0.00 0.00 0.00 53 1005.4
20260505162137 10 56 3.2 9.7 0.00 0.00 0.00 52 1005.4
20260505161634 10 182 1.6 11.3 0.00 0.00 0.00 52 1005.4
20260505161131 11 46 1.6 6.4 0.00 0.00 0.00 50 1005.4
20260505160629 11 79 4.8 6.4 0.00 0.00 0.00 50 1005.4
20260505160126 11 69 4.8 6.4 0.00 0.00 0.00 50 1005.4
20260505153106 11 80 3.2 4.8 0.00 0.00 0.00 52 1004.7
20260505152602 11 19 1.6 4.8 0.00 0.00 0.00 51 1004.7
20260505152058 11 53 1.6 6.4 0.00 0.00 0.00 51 1004.3
20260505151553 11 160 3.2 4.8 0.00 0.00 0.00 52 1004.3
20260505151051 11 68 6.4 6.4 0.00 0.00 0.00 52 1004.7
20260505150547 11 56 3.2 6.4 0.00 0.00 0.00 53 1004.3
20260505140513 10 22 1.6 6.4 0.00 0.00 0.00 51 1003.6
20260505124926 10 27 3.2 16.1 0.00 0.00 0.00 49 1002.6
20260505124423 10 43 9.7 14.5 0.00 0.00 0.00 52 1002.6
20260505123919 10 57 4.8 12.9 0.00 0.00 0.00 54 1003.0
20260505123411 10 1 1.6 4.8 0.00 0.00 0.00 57 1002.6
20260505122906 10 46 1.6 9.7 0.00 0.00 0.00 55 1002.6
20260505122404 10 10 1.6 3.2 0.00 0.00 0.00 56 1002.6
20260505121901 10 21 1.6 4.8 0.00 0.00 0.00 57 1002.3
20260505121358 9 167 3.2 12.9 0.00 0.00 0.00 57 1002.3
20260505120853 9 75 1.6 6.4 0.00 0.00 0.00 58 1002.3
20260505120350 9 45 1.6 3.2 0.00 0.00 0.00 59 1002.3
20260505115848 9 71 6.4 12.9 0.00 0.00 0.00 57 1001.9
20260505115346 10 29 3.2 12.9 0.00 0.00 0.00 61 1001.9
20260505114844 10 25 9.7 12.9 0.00 0.00 0.00 58 1001.9
20260505114340 10 30 4.8 11.3 0.00 0.00 0.00 59 1001.6
20260505113836 9 65 8.0 12.9 0.00 0.00 0.00 59 1001.3
20260505113333 10 35 8.0 14.5 0.00 0.00 0.00 61 1001.3
20260505112829 10 60 3.2 12.9 0.00 0.00 0.00 62 1001.3
20260505112326 10 63 6.4 12.9 0.00 0.00 0.00 65 1000.9
20260505111822 10 67 6.4 16.1 0.00 0.00 0.00 65 1001.3
20260505111318 11 69 8.0 12.9 0.00 0.00 0.00 66 1001.3
20260505110814 14 337 0.0 0.0 0.00 0.00 0.00 74 1001.3
20260505110311 14 289 1.6 1.6 0.00 0.00 0.00 74 1000.6